Location: Litvinovka
(48.6667°N, 34.3500°E)
Time: 19:12:34
(UTC+00:00)

Lacrosse 5 - Pass Details

Date: 18 September 2020
Orbit: 716 x 723 km, 57.0° (Epoch: 20 October)

Event Time Altitude Azimuth Distance (km) Brightness Sun altitude
Exits shadow 23:49:14 21° 101° (E) 1,600 3.9 -32.3°
Drops below altitude 10° 23:51:45 10° 74° (ENE) 2,205 5.0 -32.0°
Sets 23:54:32 0° 61° (ENE) 3,131 6.2 -31.7°
